Home > Weather > Cork > Past weeks

Flag for Ireland Past Weather in Cork, Ireland — Yesterday and Last 2 Weeks

Now
63 °F

Low clouds.


Feels Like: 63 °F
Forecast: 55 / 70 °F
Wind: 6 mph from Southwest

Location: Cork Airport

Current Time: Jul 28, 2016 at 9:54:54 AM

Latest Report: Jul 28, 2016 at 9:00 AM


Visibility: 37 mi

Pressure: 29.89 "Hg

Humidity: 96%

Dew Point: 62 °F

Location of CorkLocation

Past Weather in Cork — Graph

°F

Cork Temperature Yesterday

Maximum temperature yesterday: 66 °F (at 4:00 PM)
Minimum temperature yesterday: 58 °F (at 5:00 AM)
Average temperature yesterday: 61 °F

High & Low Weather Summary for the Past Weeks

 TemperatureHumidityPressure
High73 °F (Jul 17, 5:00 PM)100% (Jul 14, 8:00 PM)30.35 "Hg (Jul 14, 8:00 PM)
Low49 °F (Jul 14, 5:00 AM)51% (Jul 18, 1:00 PM)29.80 "Hg (Jul 20, 2:00 AM)
Average61 °F89%30.11 "Hg
* Reported Jul 13 8:00 AM — Jul 28 8:00 AM, Cork, Weather by CustomWeather, © 2016

Note: Actual official high and low records may vary slightly from our data, if they occured in-between our weather recording intervals... More about our weather records

Advertising

Cork Weather History for the Previous 24 Hours

Scroll right to see more
 ConditionsComfort  
Time TempWeatherWind HumidityBarometerVisibility
8:00 AM
Thu, Jul 28
61 °FPartly sunny.6 mph99%29.88 "Hg37 mi
7:00 AM59 °FLow clouds.7 mph100%29.89 "Hg19 mi
6:00 AM59 °FLow clouds.7 mph100%29.89 "Hg19 mi
5:00 AM59 °FLow clouds.6 mph100%29.90 "Hg9 mi
4:00 AM59 °FDrizzle. Low clouds.6 mph100%29.92 "Hg4 mi
3:00 AM58 °FFog.5 mph100%29.94 "Hg1 mi
2:00 AM58 °FDrizzle. Low clouds.5 mph100%29.97 "Hg1 mi
1:00 AM57 °FDrizzle. Low clouds.5 mph100%30.01 "Hg2 mi
12:00 AM58 °FSprinkles. Overcast.3 mph97%30.03 "Hg25 mi
11:00 PM
Wed, Jul 27
59 °FOvercast.5 mph92%30.04 "Hg37 mi
10:00 PM62 °FOvercast.3 mph87%30.05 "Hg37 mi
9:00 PM63 °FOvercast.2 mph80%30.04 "Hg37 mi
8:00 PM63 °FOvercast.2 mph88%30.04 "Hg37 mi
7:00 PM63 °FOvercast.3 mph83%30.05 "Hg37 mi
6:00 PM64 °FOvercast.3 mph85%30.05 "Hg37 mi
5:00 PM63 °FOvercast.5 mph87%30.06 "Hg37 mi
4:00 PM66 °FPartly sunny.3 mph66%30.07 "Hg37 mi
3:00 PM66 °FOvercast.2 mph68%30.07 "Hg37 mi
2:00 PM64 °FOvercast.5 mph70%30.08 "Hg31 mi
1:00 PM63 °FOvercast.5 mph73%30.09 "Hg31 mi
12:00 PM62 °FOvercast.5 mph74%30.09 "Hg31 mi
11:00 AM61 °FPartly sunny.6 mph75%30.08 "Hg31 mi
10:00 AM59 °FPartly sunny.8 mph85%30.08 "Hg25 mi
9:00 AM59 °FLow clouds.9 mph89%30.07 "Hg25 mi
Weather by CustomWeather, © 2016

See weather overviewHow to use our weather pages